Location: Sigmaringen
(48.0900°N, 9.2120°E)
Time: 06:51:37
(UTC+02:00)

ISS - Visible Passes

Search period start: 09 May 2021 00:00
Search period end: 19 May 2021 00:00
Orbit: 418 x 421 km, 51.6° (Epoch: 08 May)

Date Brightness Start Highest point End Pass type
(mag) Time Alt. Az. Time Alt. Az. Time Alt. Az.
09 May -1.8 02:03:26 24° ENE 02:03:26 24° ENE 02:04:57 10° ENE visible
09 May -2.7 03:36:22 18° WNW 03:38:35 44° N 03:41:52 10° ENE visible
09 May -3.2 05:12:22 10° WNW 05:15:44 61° NNE 05:19:05 10° E visible
10 May -0.8 01:17:27 10° ENE 01:17:27 10° ENE 01:17:30 10° ENE visible
10 May -2.9 02:50:22 41° NW 02:51:04 48° N 02:54:22 10° ENE visible
10 May -2.8 04:24:55 10° WNW 04:28:14 51° NNE 04:31:33 10° E visible
11 May -2.6 02:04:21 43° NE 02:04:21 43° NE 02:06:55 10° ENE visible
11 May -2.7 03:37:27 10° WNW 03:40:43 45° N 03:43:59 10° E visible
12 May -1.5 01:18:16 20° ENE 01:18:16 20° ENE 01:19:28 10° ENE visible
12 May -2.6 02:51:11 20° WNW 02:53:12 43° N 02:56:27 10° ENE visible
12 May -3.6 04:26:52 10° WNW 04:30:16 78° NNE 04:33:39 10° ESE visible
13 May -2.6 02:05:02 39° NW 02:05:40 44° N 02:08:55 10° ENE visible
13 May -3.2 03:39:26 10° WNW 03:42:48 61° NNE 03:46:10 10° E visible
14 May -2.7 01:18:37 44° NNE 01:18:37 44° NNE 01:21:26 10° ENE visible
14 May -2.9 02:51:59 10° WNW 02:55:18 51° N 02:58:37 10° E visible
14 May -3.6 04:28:51 10° WNW 04:32:10 53° SSW 04:35:27 10° SE visible
14 May -3.4 22:50:40 10° SW 22:53:51 40° SSE 22:55:39 21° E visible
15 May -3.2 00:27:18 10° W 00:30:37 57° NNW 00:33:58 10° ENE visible
15 May -2.7 02:04:30 10° WNW 02:07:46 45° N 02:11:03 10° E visible
15 May -3.9 03:41:23 10° WNW 03:44:45 77° SSW 03:48:08 10° ESE visible
15 May -2.8 22:03:37 10° SSW 22:06:31 27° SE 22:09:27 10° E visible
15 May -3.6 23:39:46 10° WSW 23:43:08 71° NNW 23:46:31 10° ENE visible
16 May -2.6 01:16:59 10° WNW 01:20:14 43° N 01:23:30 10° ENE visible
16 May -3.7 02:53:56 10° WNW 02:57:19 79° NNE 03:00:42 10° ESE visible
16 May -2.6 04:31:06 10° W 04:33:52 24° SW 04:36:38 10° SSE visible
16 May -3.9 22:52:18 10° WSW 22:55:41 86° SSE 22:59:03 10° ENE visible
17 May -2.6 00:29:27 10° WNW 00:32:42 44° N 00:35:58 10° ENE visible
17 May -3.3 02:06:29 10° WNW 02:09:50 61° NNE 02:13:12 10° E visible
17 May -3.2 03:43:26 10° WNW 03:46:33 35° SW 03:49:39 10° SSE visible
17 May -3.8 22:04:56 10° SW 22:08:15 61° SSE 22:11:36 10° ENE visible
17 May -2.8 23:41:53 10° W 23:45:10 48° N 23:48:28 10° ENE visible
18 May -2.9 01:19:01 10° WNW 01:22:20 51° NNE 01:22:56 44° NE visible
18 May -3.1 22:54:19 10° W 22:57:39 56° NNW 23:01:00 10° ENE visible
